Ketchikan, AK

8:35 AM AKDT on October 16, 2018 (GMT -0800)
Ketchikan International

Weather History for PAKT - September, 2018

Change the Weather History Date:

Thursday, September 6, 2018

  Actual Average Record
Temperature  
Mean Temperature 56 °F -  
Max Temperature 64 °F 60 °F 77 °F (1949)
Min Temperature 51 °F 48 °F 41 °F (2002)
Degree Days  
Heating Degree Days 8    
Growing Degree Days 6 (Base 50)    
Moisture  
Dew Point 52 °F    
Average Humidity 90    
Maximum Humidity 100    
Minimum Humidity 68    
Precipitation  
Precipitation 0.08 in - - ()
Sea Level Pressure  
Sea Level Pressure 29.99 in    
Wind  
Wind Speed 5 mph (West)    
Max Wind Speed 12 mph    
Max Gust Speed -    
Visibility 9 miles    
Events Rain    
Averages and records for this station are not official NWS values.
T = Trace of Precipitation, MM = Missing Value Source: NWS Daily Summary

Daily Weather History Graph

Daily Weather History Graph

Search for Another Location

Airport or City:

Astronomy

Sep. 06, 2018 Rise Set
Actual Time 6:02 AM AKDT 7:26 PM AKDT
Civil Twilight 5:24 AM AKDT 8:04 PM AKDT
Nautical Twilight 4:37 AM AKDT 8:50 PM AKDT
Astronomical Twilight 3:44 AM AKDT 9:42 PM AKDT
Moon 1:36 AM AKDT (9/6) 6:18 PM AKDT (9/6)
Length of Visible Light 14h 40m
Length of Day
13h 24m
Waning Crescent, 12% of the Moon is Illuminated
Sep 6
Waning Crescent
Sep 9
New
Sep 16
First Quarter
Sep 24
Full
Oct 2
Last Quarter

Hourly Weather History & Observations

Time (AKDT) Temp. Dew Point Humidity Pressure Visibility Wind Dir Wind Speed Gust Speed Precip Events Conditions
12:53 AM 53.1 °F 51.1 °F 93% 30.07 in 10.0 mi WNW 5.8 mph - N/A   Partly Cloudy
1:53 AM 52.0 °F 51.1 °F 97% 30.06 in 10.0 mi WNW 3.5 mph - N/A   Mostly Cloudy
2:11 AM 53.1 °F 51.1 °F 93% 30.06 in 10.0 mi West 4.6 mph - N/A   Mostly Cloudy
2:53 AM 52.0 °F 51.1 °F 97% 30.06 in 10.0 mi WNW 4.6 mph - N/A   Partly Cloudy
3:09 AM 52.0 °F 51.1 °F 97% 30.05 in 10.0 mi WNW 5.8 mph - N/A   Mostly Cloudy
3:53 AM 52.0 °F 51.1 °F 97% 30.04 in 8.0 mi WNW 5.8 mph - N/A   Overcast
4:27 AM 51.8 °F 51.8 °F 100% 30.04 in 1.8 mi WNW 4.6 mph - N/A   Overcast
4:41 AM 51.1 °F 50.0 °F 96% 30.04 in 3.0 mi WNW 3.5 mph - N/A   Overcast
4:53 AM 52.0 °F 50.0 °F 93% 30.04 in 6.0 mi WNW 4.6 mph - N/A   Overcast
5:53 AM 52.0 °F 51.1 °F 97% 30.03 in 10.0 mi WNW 4.6 mph - N/A   Overcast
6:07 AM 51.8 °F 51.8 °F 100% 30.03 in 10.0 mi WNW 4.6 mph - N/A   Overcast
6:53 AM 53.6 °F 51.8 °F 94% 30.03 in 10.0 mi NW 4.6 mph - N/A   Overcast
7:53 AM 53.6 °F 51.8 °F 94% 30.02 in 10.0 mi NW 5.8 mph - N/A   Mostly Cloudy
8:53 AM 55.4 °F 53.6 °F 94% 30.02 in 3.0 mi Calm Calm - N/A   Scattered Clouds
9:53 AM 57.2 °F 53.6 °F 88% 30.01 in 5.0 mi North 3.5 mph - N/A   Haze
10:53 AM 59.0 °F 53.6 °F 82% 30.00 in 10.0 mi NNW 4.6 mph - N/A   Partly Cloudy
11:53 AM 60.8 °F 53.6 °F 77% 29.99 in 10.0 mi NNW 6.9 mph - N/A   Partly Cloudy
12:53 PM - - N/A% 29.98 in - North - - N/A   Clear
1:53 PM 60.8 °F 53.6 °F 77% 29.97 in 10.0 mi North - - N/A   Clear
2:53 PM 60.8 °F 53.6 °F 77% 29.97 in 10.0 mi SE 10.4 mph - N/A   Scattered Clouds
3:53 PM - - N/A% 29.95 in 10.0 mi ESE 11.5 mph - N/A   Scattered Clouds
4:53 PM 62.6 °F 51.8 °F 68% 29.94 in 10.0 mi ESE 10.4 mph - N/A   Clear
5:53 PM 59.0 °F 51.8 °F 77% 29.93 in 10.0 mi SSE 5.8 mph - N/A   Clear
6:53 PM 57.0 °F 52.0 °F 83% 29.93 in 10.0 mi SSE 5.8 mph - N/A   Scattered Clouds
7:53 PM 55.9 °F 53.1 °F 90% 29.93 in 10.0 mi SSE 6.9 mph - N/A   Mostly Cloudy
8:53 PM 55.9 °F 53.1 °F 90% 29.93 in 10.0 mi SSE 4.6 mph - N/A   Overcast
9:00 PM 55.9 °F 53.1 °F 90% 29.93 in 10.0 mi SSE 5.8 mph - N/A   Mostly Cloudy
9:18 PM 55.9 °F 53.1 °F 90% 29.92 in 10.0 mi SE 8.1 mph - N/A   Overcast
9:53 PM 55.0 °F 53.1 °F 93% 29.91 in 10.0 mi SSE 4.6 mph - 0.00 in Rain Light Rain
10:53 PM 55.0 °F 53.1 °F 93% 29.89 in 5.0 mi Calm Calm - 0.04 in Rain Light Rain
11:53 PM 55.9 °F 53.1 °F 90% 29.86 in 9.0 mi Calm Calm - 0.04 in Rain Light Rain